sat.trackr.live / text

‹ back to catalog

STARLINK-30582

NORAD 58059 · 2023-158J

PAYLOAD ACTIVE UNKNOWN

§ Identity

Operator
Country
US
Launch date
2023-10-13
Launch site
AFETR
Launch vehicle
Mass (kg)
RCS (m²)

Purposes: comms

External: N2YO · Heavens-Above · Gunter

§ Orbital elements

Epoch: 2026-05-25T04:30:23.544864Z

Period
94.27 min
Inclination
43.0060°
Eccentricity
0.0001940
Mean motion
15.27578308 rev/d
Perigee alt
481.7 km
Apogee alt
484.4 km
Semi-major
6,861.2 km
B*
4.4046e-6
RAAN
314.6625°
Arg perigee
259.9460°
Mean anomaly
100.1173°
Rev number
14,527

§ Raw data

STARLINK-305821 58059U 23158J   26145.18777251 -.00000141  00000+0  44046-5 0  99912 58059  43.0060 314.6625 0001940 259.9460 100.1173 15.27578308145276

JSON: /api/v1/satellites/58059 · /tle

For live sub-satellite position, see the globe view (requires WebGL).

§ Visibility from observer

Set your observer location to see the next 7 days of passes ≥ 10°. The values pass through the URL so the page stays shareable.

No JS? Fill the form by hand. The geolocation button needs JavaScript.